Location: Unspecified
(0.0000°N, 0.0000°E)
Time: 11:45:06
(UTC+00:00)

Transit 4A - Pass Details

Date: 22 November 2019
Orbit: 870 x 975 km, 66.8° (Epoch: 07 December)

Event Time Altitude Azimuth Distance (km) Brightness Sun altitude
Rises 20:41:25 0° 232° (SW) 3,667 11.9 -40.5°
Reaches altitude 10° 20:44:55 10° 250° (WSW) 2,714 11.0 -41.3°
Enters shadow 20:48:50 17° 289° (WNW) 2,209 10.1 -42.2°
Maximum altitude 20:48:55 17° 290° (WNW) 2,209 - -42.2°
Drops below altitude 10° 20:52:54 10° 330° (NNW) 2,685 - -43.1°
Sets 20:56:22 0° 349° (NNW) 3,612 - -43.8°
